User: anonymous   Login
Location: ????????
(55.0808°N, 38.5463°E)
Time: 17:53:46
(UTC+00:00)
Language:

NOAA 11 - Orbit

View from above orbital plane
View from above orbital plane
View from above satellite
View from above satellite

Ground track
Ground track

The orbit data is extracted from the following two-line orbital elements,

1 19531U 88089A   24165.89457686  .00000105  00000-0  75121-4 0  9999
2 19531  98.5178 128.6050 0010031 241.8426 118.1735 14.15541017843722
Epoch (UTC): 13 June 2024 21:28:11
Eccentricity: 0.0010031
inclination: 98.5178°
perigee height: 833 km
apogee height: 848 km
right ascension of ascending node: 128.6050°
argument of perigee: 241.8426°
revolutions per day: 14.15541017
mean anomaly at epoch: 118.1735°
orbit number at epoch: 84372

The dashed part of the orbit path shows where the satellite is in the earth's shadow,  

DLR